Find Comstar 202

NORAD ID: 9047 Int'l Des: 1976-073 Owner: COM Country: US operational
HEOCIRCULAR

リアルタイム位置

3D地球を読み込み中...

Comstar 202について

説明を読み込み中...

次回通過

Passes for default location (London). Set your location on the main map for personalized predictions.

高度履歴

Loading altitude history...

軌道要素

1 9047U 76073A 26105.16442647 .00000127 00000-0 00000+0 0 9990
2 9047 8.0530 305.5726 0001320 39.1741 314.8835 0.99975771 46575
Epoch: Apr 15, 2026 • Age: 7 hours

現在のステータス

高度 35865.5 km
速度 3.07 km/s
衛星直下点 8.01°N, 36.89°E
タイプ other

Most Searched